Location: Unspecified
(48.2082°N, 0.0000°E)
Time: 18:11:03
(UTC+00:00)

Tiros 1 despin weight - Pass Details

Date: 25 June 2019
Orbit: 594 x 642 km, 48.2° (Epoch: 17 July)

Event Time Altitude Azimuth Distance (km) Brightness Sun altitude
Rises 21:27:13 0° 214° (SW) 2,862 ? -10.4°
Reaches altitude 10° 21:29:48 10° 202° (SSW) 1,952 ? -10.6°
Maximum altitude 21:33:32 26° 146° (SE) 1,184 ? -11.0°
Drops below altitude 10° 21:37:15 10° 89° (E) 1,939 ? -11.3°
Sets 21:39:47 0° 77° (ENE) 2,839 ? -11.6°
